Home   Weather   Sevilla   Past weeks
Flag for Spain

Past Weather in Sevilla, Spain — Yesterday and Last 2 Weeks

Now
73 °F

Passing clouds.


Feels Like: 77 °F
Forecast: 67 / 49 °F
Wind: 7 mph from West

Location: Sevilla / San Pablo

Current Time: Feb 28, 2020 at 5:19:41 pm

Latest Report: Feb 28, 2020 at 4:30 pm


Visibility: N/A

Pressure: 30.07 "Hg

Humidity: 36%

Dew Point: 45 °F

Location of SevillaLocation

Past Weather in Sevilla — Graph

°F

Sevilla Temperature Yesterday

Maximum temperature yesterday: 73 °F (at 4:30 pm)
Minimum temperature yesterday: 45 °F (at 8:00 am)
Average temperature yesterday: 59 °F

High & Low Weather Summary for the Past Weeks

 TemperatureHumidityPressure
High77 °F (Feb 23, 4:30 pm)100% (Feb 15, 5:30 am)30.48 "Hg (Feb 15, 5:30 am)
Low45 °F (Feb 27, 8:00 am)22% (Feb 24, 4:00 pm)30.07 "Hg (Feb 28, 3:00 pm)
Average60 °F70%30.29 "Hg
* Reported Feb 13 4:00 pm — Feb 28 4:00 pm, Sevilla. Weather by CustomWeather, © 2020

Note: Actual official high and low records may vary slightly from our data, if they occured in-between our weather recording intervals... More about our weather records

Sevilla Weather History for the Previous 24 Hours

Scroll right to see more
 ConditionsComfort  
Time TempWeatherWind HumidityBarometerVisibility
4:00 pm
Fri, Feb 28
73 °FPassing clouds.7 mph33%30.07 "HgN/A
3:30 pm73 °FPassing clouds.6 mph31%30.07 "HgN/A
3:00 pm73 °FSunny.3 mph33%30.07 "Hg10 mi
2:30 pm72 °FSunny.3 mph33%30.09 "Hg10 mi
2:00 pm70 °FPassing clouds.5 mph38%30.12 "HgN/A
1:30 pm70 °FSunny.3 mph40%30.12 "Hg10 mi
1:00 pm70 °FSunny.1 mph40%30.15 "Hg10 mi
12:30 pm66 °FSunny.2 mph46%30.15 "Hg10 mi
12:00 pm64 °FPassing clouds.5 mph49%30.15 "HgN/A
11:30 am64 °FPassing clouds.7 mph49%30.15 "HgN/A
11:00 am63 °FSunny.13 mph52%30.15 "Hg10 mi
10:30 am61 °FSunny.15 mph55%30.15 "Hg10 mi
9:30 am54 °FPassing clouds.3 mph72%30.18 "HgN/A
9:00 am50 °FSunny.5 mph82%30.15 "Hg10 mi
8:30 am50 °FSunny.5 mph76%30.15 "Hg10 mi
8:00 am50 °FSunny.7 mph76%30.15 "Hg10 mi
7:30 am50 °FPassing clouds.7 mph76%30.15 "HgN/A
7:00 am50 °FClear.3 mph76%30.15 "Hg10 mi
6:30 am52 °FClear.6 mph72%30.15 "Hg10 mi
6:00 am54 °FClear.9 mph67%30.15 "Hg10 mi
5:30 am54 °FClear.8 mph67%30.15 "Hg10 mi
5:00 am54 °FClear.10 mph67%30.15 "Hg10 mi
4:30 am50 °FClear.5 mph76%30.15 "Hg10 mi
4:00 am52 °FClear.5 mph72%30.18 "Hg10 mi
3:30 am52 °FClear.No wind72%30.18 "Hg10 mi
3:00 am52 °FClear.No wind72%30.21 "Hg10 mi
2:30 am54 °FClear.2 mph67%30.21 "Hg10 mi
2:00 am52 °FPassing clouds.3 mph72%30.21 "HgN/A
1:30 am55 °FClear.8 mph63%30.21 "Hg10 mi
1:00 am57 °FClear.8 mph55%30.21 "Hg10 mi
12:30 am59 °FClear.8 mph51%30.21 "Hg10 mi
12:00 am59 °FPassing clouds.9 mph51%30.21 "HgN/A
11:30 pm
Thu, Feb 27
59 °FClear.8 mph51%30.21 "Hg10 mi
11:00 pm57 °FClear.3 mph59%30.21 "Hg10 mi
10:30 pm57 °FPassing clouds.3 mph59%30.21 "HgN/A
10:00 pm59 °FPassing clouds.3 mph55%30.21 "HgN/A
9:30 pm61 °FClear.8 mph52%30.21 "Hg10 mi
9:00 pm63 °FClear.6 mph52%30.21 "Hg10 mi
8:30 pm66 °FClear.3 mph43%30.21 "Hg10 mi
8:00 pm66 °FClear.6 mph40%30.21 "Hg10 mi
7:30 pm70 °FClear.3 mph38%30.18 "Hg10 mi
7:00 pm70 °FPassing clouds.3 mph38%30.18 "HgN/A
6:30 pm73 °FSunny.6 mph31%30.18 "Hg10 mi
6:00 pm73 °FPassing clouds.3 mph33%30.18 "HgN/A
5:30 pm73 °FPassing clouds.6 mph33%30.18 "HgN/A
5:00 pm73 °FPassing clouds.3 mph36%30.18 "HgN/A
Weather by CustomWeather, © 2020

See weather overview

Advertising